Location: Fort Worth, Tx
(32.7431°N, 97.3695°W)
Time: 13:05:25
(UTC-04:00)

Vanguard 2 Rocket - Pass Details

Date: 05 March 2024
Orbit: 555 x 3307 km, 32.9° (Epoch: 23 April)

Event Time Altitude Azimuth Distance (km) Brightness Sun altitude
Rises 21:06:48 0° 272° (W) 5,708 12.5 -21.0°
Reaches altitude 10° 21:11:42 10° 257° (WSW) 5,144 11.7 -22.1°
Maximum altitude 21:21:50 20° 217° (SW) 4,993 10.9 -24.2°
Drops below altitude 10° 21:34:03 10° 178° (S) 6,230 11.0 -26.7°
Sets 21:41:14 0° 163° (SSE) 7,262 11.2 -28.2°
